Wetbulb
39.68 39.21 38.62 38.09 37.86 37.86 37.95 37.95 37.64 37.75 37.99 38.06 37.78 37.70 37.59 37.38 37.28 37.52 37.72 37.93 37.86 37.91 38.15 38.39 38.55 38.65 38.79 39.03 38.95 38.73 38.58 38.50 38.39 38.05 37.88 37.91 38.23 38.53 38.83 38.99 39.27 39.64 39.98 40.24 40.83 41.32 41.74 42.03 42.40 43.11 43.91 44.50 44.76 44.98 45.46 46.20 46.51 46.77 46.85 46.93 46.92 47.03 47.06 47.11 47.37 47.87 48.63 49.41 50.34
39.56 39.17 38.57 37.72 37.51 37.61 37.74 37.41 37.39 37.38 37.53 37.70 37.68 37.41 37.17 37.13 37.11 37.18 37.46 37.63 37.85 37.94 38.10 38.30 38.26 38.36 38.50 38.51 38.46 38.29 38.04 37.79 37.72 37.63 37.59 37.65 38.16 38.44 38.63 38.56 38.93 39.29 39.69 40.15 40.45 40.67 41.01 41.39 41.76 42.14 42.77 43.44 43.82 44.07 44.38 44.72 45.37 45.54 45.59 45.89 46.36 46.79 46.86 46.72 46.93 47.30 47.89 48.58 49.56
39.44 38.96 38.49 37.98 37.64 37.28 37.06 36.73 36.72 36.58 36.61 36.90 37.22 37.15 37.04 37.05 37.08 37.16 37.31 37.63 37.90 37.94 37.96 37.90 37.91 38.06 38.22 38.17 38.03 37.83 37.76 37.57 37.57 37.45 37.40 37.48 37.67 37.87 38.05 38.23 38.58 38.98 39.42 39.94 40.31 40.58 40.81 41.10 41.37 41.55 41.89 42.40 42.80 42.96 43.26 43.66 43.91 44.00 44.17 44.47 45.41 46.14 46.61 46.76 46.90 47.17 47.55 48.12 48.90
39.31 38.75 38.15 37.54 37.12 36.70 36.45 36.29 36.11 36.06 36.19 36.45 36.75 36.89 36.95 37.01 37.06 37.13 37.26 37.55 37.56 37.48 37.54 37.47 37.48 37.66 37.64 37.64 37.50 37.44 37.33 37.12 37.13 37.04 36.90 36.93 37.06 37.27 37.53 37.75 37.79 38.22 38.69 39.17 39.62 40.13 40.52 40.79 41.02 41.29 41.63 42.04 42.48 42.81 43.04 43.23 43.10 43.27 43.44 43.78 44.42 45.20 45.89 46.69 47.05 47.35 47.44 47.72 48.20
39.05 38.57 37.93 37.43 37.09 36.75 36.51 36.34 36.12 36.04 36.10 36.36 36.52 36.61 36.75 36.85 36.89 36.91 36.88 36.96 36.85 36.95 37.19 37.30 37.30 37.41 37.46 37.26 36.96 36.90 36.91 36.74 36.20 36.13 36.24 36.28 36.41 36.65 36.89 37.11 37.23 37.56 37.95 38.45 39.04 39.47 39.87 40.35 40.51 40.73 41.06 41.40 41.80 42.31 42.86 43.44 43.31 43.13 43.22 43.53 43.83 44.34 44.94 45.67 46.62 47.16 47.42 47.49 47.78
38.62 38.38 38.01 37.52 37.21 36.96 36.64 36.43 36.24 36.08 36.05 36.24 36.27 36.27 36.25 36.48 36.51 36.28 36.09 35.86 36.03 36.49 36.79 36.86 37.00 36.83 36.64 36.50 36.31 36.02 35.96 36.00 35.89 35.86 35.87 36.08 36.14 36.34 36.61 36.72 36.99 37.30 37.62 37.99 38.70 39.23 39.73 40.07 39.90 39.98 40.14 40.72 41.09 41.65 42.28 42.94 43.09 43.03 42.98 43.04 43.34 43.73 44.03 44.29 45.33 46.36 47.18 47.43 47.59
38.35 38.05 37.64 37.28 37.48 37.17 36.74 36.59 36.27 36.15 36.08 36.10 36.05 36.01 35.93 35.98 35.89 35.70 35.56 35.58 35.69 35.94 36.13 36.30 36.20 36.00 35.61 35.53 35.34 35.25 35.28 35.24 35.27 35.37 35.51 35.52 35.73 35.94 35.99 36.08 36.56 36.88 37.09 37.68 38.16 38.64 39.13 39.65 39.47 39.42 39.52 39.81 40.53 41.02 41.29 41.46 41.85 42.17 42.41 42.76 43.17 43.56 43.73 43.95 44.77 45.67 46.59 47.28 47.67
38.08 37.79 37.50 37.18 37.47 37.12 36.68 36.35 36.06 35.92 35.83 35.72 35.83 35.81 35.77 35.81 35.65 35.56 35.42 35.37 35.33 35.54 35.73 36.00 35.90 35.59 35.38 35.05 35.15 34.98 34.79 34.66 34.68 34.78 34.93 35.01 35.09 35.13 35.30 35.50 35.95 36.40 36.89 37.39 37.44 37.66 37.98 38.64 38.79 39.05 39.25 39.76 40.02 40.30 40.61 40.93 41.25 41.37 41.70 42.24 43.31 44.06 44.54 44.76 45.07 45.67 46.29 46.77 47.39
37.47 37.47 37.56 37.41 37.07 36.78 36.37 36.10 35.89 35.63 35.42 35.39 35.51 35.50 35.40 35.39 35.27 35.24 35.10 34.94 35.02 35.08 35.22 35.41 35.56 35.32 35.04 34.55 34.43 34.34 34.31 34.26 34.24 34.27 34.28 34.42 34.44 34.45 34.66 34.94 35.37 35.78 36.29 36.80 36.89 36.94 37.23 37.63 38.12 38.65 39.18 39.70 39.95 40.51 41.08 41.76 41.80 41.71 41.67 41.83 42.32 43.21 44.14 45.17 45.53 45.75 45.97 45.97 46.16
37.03 37.19 37.21 36.89 36.83 36.47 36.19 36.07 35.95 35.66 35.44 35.23 35.18 35.14 34.96 34.69 34.76 34.92 34.80 34.72 34.63 34.55 34.59 34.65 34.87 34.50 34.05 33.71 33.58 33.68 33.80 33.93 33.86 33.88 33.84 33.88 33.84 33.91 34.01 34.05 34.62 34.98 35.40 35.94 36.19 36.36 36.60 36.85 37.32 38.18 39.04 39.64 40.05 40.51 41.03 41.57 41.51 41.33 41.24 41.26 41.26 41.34 41.74 42.39 43.34 43.99 44.33 44.38 44.35
36.96 37.11 36.88 36.39 36.39 36.08 35.77 35.73 35.58 35.35 35.15 34.91 34.90 34.86 34.60 34.44 34.56 34.59 34.57 34.47 34.14 33.99 33.93 34.08 34.01 33.61 33.25 33.17 33.23 33.35 33.48 33.73 33.66 33.55 33.45 33.37 33.30 33.45 33.61 33.80 33.98 34.20 34.56 35.26 35.81 36.10 36.30 36.55 37.01 37.64 38.28 38.76 39.17 39.61 40.08 40.53 40.65 40.69 40.81 40.95 41.07 41.06 40.96 41.20 41.73 42.20 42.58 43.00 43.36
36.90 36.94 36.67 36.37 36.19 35.87 35.50 35.13 34.99 34.85 34.71 34.46 34.54 34.35 34.25 34.25 34.19 34.15 33.97 33.82 33.45 33.40 33.44 33.72 33.49 33.22 32.92 32.71 32.94 33.07 33.19 33.30 33.25 33.05 33.04 32.94 32.90 33.01 33.27 33.51 33.68 33.74 34.08 34.68 35.65 36.18 36.51 36.97 37.20 37.63 37.99 38.42 38.82 39.35 39.87 40.28 40.50 40.58 40.71 40.98 41.16 41.13 41.12 40.90 41.13 41.32 41.66 42.11 42.57
36.44 36.35 36.25 36.12 36.00 35.72 35.19 34.82 34.66 34.57 34.31 34.03 33.86 33.77 33.63 33.58 33.64 33.55 33.33 33.09 32.92 32.84 32.96 33.22 33.15 32.93 32.63 32.50 32.60 32.76 32.93 33.06 32.89 32.73 32.63 32.57 32.53 32.70 32.90 33.17 33.43 33.70 33.91 34.39 35.36 36.20 36.65 37.16 37.49 37.65 37.73 38.05 38.64 39.20 39.68 40.08 40.16 40.33 40.42 40.60 40.79 40.80 40.91 41.00 40.97 41.07 41.30 41.53 41.87
36.23 36.05 35.89 35.91 35.76 35.57 35.08 34.71 34.50 34.19 33.90 33.49 33.30 33.15 33.09 33.00 33.07 33.02 32.89 32.63 32.54 32.45 32.55 32.73 32.68 32.67 32.63 32.63 32.50 32.44 32.54 32.49 32.47 32.42 32.26 32.14 32.27 32.45 32.61 32.94 33.33 33.51 33.83 34.24 35.15 35.90 36.44 36.86 37.23 37.38 37.46 37.46 37.81 38.26 38.74 39.18 39.46 39.62 39.88 40.10 40.33 40.56 41.01 41.38 41.53 41.54 41.53 41.62 41.76
36.19 36.01 35.88 35.84 35.51 35.25 34.88 34.41 34.18 33.79 33.43 33.08 32.86 32.78 32.72 32.61 32.68 32.68 32.61 32.41 32.26 32.26 32.23 32.30 32.28 32.50 32.75 32.90 32.65 32.46 32.30 32.23 32.14 32.09 32.09 31.94 32.07 32.23 32.48 32.75 33.10 33.40 33.66 34.08 34.68 35.49 36.24 36.63 36.90 37.13 37.19 37.14 37.33 37.66 38.01 38.41 38.78 39.16 39.46 39.85 40.03 40.43 40.87 41.41 41.96 42.11 42.21 42.31 42.13
36.16 35.98 35.86 35.67 35.23 34.87 34.52 34.13 33.89 33.47 33.12 32.71 32.68 32.62 32.50 32.36 32.43 32.44 32.32 32.17 32.12 32.03 32.03 31.93 31.97 32.20 32.52 32.73 32.76 32.57 32.26 32.23 32.12 31.96 31.92 31.81 31.94 31.99 32.12 32.40 32.80 33.14 33.50 33.75 34.12 34.79 35.56 36.21 36.69 37.01 37.22 37.32 37.50 37.64 37.90 38.18 38.44 38.87 39.26 39.69 40.17 40.56 40.96 41.41 41.86 42.30 42.52 42.62 42.16
35.97 35.66 35.42 35.20 34.69 34.35 34.00 33.72 33.61 33.31 32.95 32.54 32.51 32.36 32.22 32.19 32.19 32.15 32.03 31.86 31.78 31.72 31.66 31.70 31.82 31.90 31.93 32.08 32.41 32.43 32.20 31.94 31.98 31.92 31.86 31.76 31.86 31.96 32.04 32.15 32.51 32.89 33.25 33.42 33.71 34.23 34.79 35.66 36.44 36.98 37.31 37.55 37.67 37.88 38.02 38.25 38.47 38.77 39.21 39.64 40.21 40.78 41.22 41.49 41.84 42.20 42.47 42.65 42.39
35.37 35.14 34.88 34.64 34.28 33.90 33.60 33.41 33.30 33.09 32.88 32.37 32.27 32.17 32.06 32.05 31.89 31.82 31.86 31.84 31.71 31.51 31.40 31.44 31.64 31.70 31.70 31.71 32.01 32.11 32.08 31.82 31.71 31.85 31.91 31.99 32.04 32.09 32.12 32.04 32.54 32.89 33.19 33.35 33.66 34.12 34.62 35.23 36.05 36.74 37.30 37.71 37.92 38.18 38.27 38.32 38.45 38.63 38.95 39.30 39.86 40.48 41.01 41.28 41.46 41.64 41.81 42.04 42.25
34.78 34.64 34.38 34.03 33.74 33.41 33.22 33.03 32.94 32.87 32.66 32.20 32.07 32.02 31.99 32.01 31.95 31.73 31.65 31.67 31.61 31.55 31.35 31.15 31.34 31.47 31.57 31.59 31.74 31.99 32.06 31.96 31.80 31.85 32.09 32.20 32.17 32.20 32.23 32.19 32.52 32.83 33.15 33.35 33.62 34.20 34.75 35.26 35.83 36.41 36.92 37.36 37.65 37.91 38.09 38.23 38.23 38.38 38.60 39.00 39.56 40.04 40.66 41.15 41.33 41.43 41.52 41.58 41.78
34.26 34.07 33.84 33.63 33.30 33.02 32.92 32.81 32.85 32.74 32.59 32.20 32.03 31.99 32.03 31.95 31.80 31.58 31.39 31.35 31.44 31.48 31.32 31.06 31.00 31.06 31.26 31.47 31.57 31.74 31.98 32.18 32.08 32.14 32.16 32.36 32.30 32.30 32.30 32.38 32.52 32.77 33.10 33.38 33.67 34.19 34.90 35.36 35.73 36.01 36.24 36.65 37.02 37.31 37.65 37.91 38.13 38.31 38.49 38.82 39.13 39.49 39.89 40.33 40.69 40.96 41.28 41.50 41.46
33.79 33.68 33.55 33.27 33.02 32.83 32.74 32.59 32.62 32.67 32.60 32.29 32.09 32.04 31.96 31.79 31.64 31.48 31.24 31.22 31.38 31.21 31.10 30.94 30.91 30.89 30.89 31.15 31.22 31.49 31.73 32.10 32.24 32.26 32.27 32.47 32.42 32.49 32.59 32.67 32.78 32.94 33.13 33.64 33.99 34.45 34.84 35.27 35.59 35.81 36.06 36.34 36.66 37.12 37.37 37.56 37.51 37.47 37.43 37.51 37.61 37.76 38.00 38.35 38.70 39.19 39.42 39.64 39.87
33.38 33.51 33.36 32.99 32.92 32.90 32.73 32.46 32.52 32.64 32.61 32.25 32.19 32.12 32.05 31.80 31.52 31.37 31.35 31.35 31.30 31.10 30.91 30.82 30.71 30.71 30.77 30.93 31.15 31.34 31.61 31.92 32.22 32.40 32.44 32.61 32.68 32.83 32.97 33.09 33.27 33.36 33.54 33.90 34.08 34.57 34.87 35.30 35.51 35.89 36.08 36.33 36.58 36.65 36.51 36.16 35.80 35.54 35.39 35.42 35.61 36.01 36.32 36.75 37.19 37.55 38.04 38.32 38.72
32.76 33.07 33.09 32.85 32.78 32.74 32.60 32.57 32.46 32.38 32.27 32.06 32.12 32.03 31.87 31.72 31.31 31.38 31.51 31.42 31.23 31.12 31.02 30.75 30.73 30.82 30.91 31.13 31.30 31.43 31.57 31.82 31.98 32.25 32.49 32.77 32.82 33.07 33.12 33.22 33.44 33.57 33.65 33.54 33.90 34.43 34.86 35.16 35.45 35.69 35.91 35.95 35.68 35.29 34.96 34.77 34.47 34.17 34.09 34.16 34.43 34.85 35.32 35.87 36.32 36.85 37.38 37.92 38.34
32.20 32.46 32.66 32.21 32.36 32.41 32.39 32.36 32.24 32.06 31.87 31.63 31.76 31.59 31.14 30.92 30.91 31.11 31.27 31.30 31.12 31.09 30.99 30.83 30.83 30.93 31.05 31.35 31.51 31.63 31.71 31.71 31.84 32.15 32.48 32.94 33.07 33.23 33.25 33.27 33.42 33.60 33.67 33.64 34.02 34.41 34.61 34.33 34.65 34.85 34.88 34.80 34.53 34.21 34.02 33.91 33.74 33.51 33.58 33.62 33.92 34.22 34.65 35.25 35.82 36.36 36.89 37.30 37.93
32.04 32.21 32.39 32.27 32.15 32.06 32.08 32.08 31.85 31.62 31.59 31.59 31.45 31.35 31.01 30.67 30.69 30.75 30.92 31.02 31.17 31.24 31.24 31.11 31.19 31.23 31.38 31.53 31.90 32.12 32.29 32.34 32.50 32.62 32.86 33.08 33.25 33.33 33.40 33.54 33.71 33.77 33.78 33.75 34.30 34.54 34.37 33.89 33.98 33.83 33.56 33.48 33.53 33.49 33.43 33.45 33.49 33.54 33.55 33.66 33.78 33.98 34.29 34.75 35.29 35.91 36.57 37.02 37.55
32.17 32.15 32.13 32.06 31.82 31.87 31.71 31.55 31.43 31.26 31.20 31.27 31.11 31.06 30.89 30.82 30.69 30.63 30.74 30.78 30.92 31.17 31.36 31.45 31.59 31.64 31.70 32.07 32.45 32.78 33.12 33.29 33.34 33.22 33.13 33.08 33.23 33.40 33.45 33.62 33.73 33.94 34.11 34.25 34.48 34.46 34.54 34.52 33.96 33.33 32.87 33.10 33.05 33.00 32.85 32.91 33.22 33.54 33.67 33.70 33.84 33.87 33.99 34.17 34.76 35.35 36.20 36.78 37.40
32.05 31.89 31.71 31.78 31.61 31.38 31.27 31.19 31.10 30.84 30.57 30.55 30.45 30.55 30.55 30.62 30.34 30.49 30.56 30.60 30.83 31.15 31.45 31.66 31.87 31.89 31.92 32.32 32.74 33.01 33.27 33.40 33.34 33.38 33.42 33.45 33.47 33.58 33.73 33.86 34.07 34.11 34.19 34.44 34.43 34.33 34.25 34.18 33.83 33.51 33.09 33.10 32.94 32.64 32.49 32.49 32.85 33.08 33.24 33.32 33.47 33.67 33.83 33.90 34.31 34.90 35.70 36.54 37.17
31.43 31.29 31.26 31.22 31.00 30.94 30.89 30.75 30.47 30.18 30.04 30.04 30.08 30.20 30.37 30.43 30.46 30.29 30.35 30.51 30.83 30.95 31.05 31.08 31.52 31.70 31.76 31.81 32.23 32.67 33.16 33.33 33.41 33.44 33.50 33.58 33.70 33.74 33.77 33.84 33.84 34.06 34.18 34.39 34.30 34.13 33.93 33.76 33.64 33.42 33.12 32.60 32.78 32.75 32.57 32.27 32.47 32.45 32.55 32.77 33.02 33.14 33.43 33.77 34.20 34.81 35.29 35.91 36.66
30.93 30.79 30.69 30.53 30.33 30.24 30.16 29.96 29.74 29.60 29.66 29.80 29.89 29.94 30.03 29.94 29.92 29.87 30.11 30.32 30.33 30.14 30.01 30.12 30.76 31.21 31.31 31.34 31.81 32.42 32.74 33.02 33.24 33.44 33.66 33.74 33.62 33.50 33.45 33.48 33.15 33.23 33.53 34.26 34.04 33.84 33.71 33.44 33.37 33.30 33.25 33.03 32.60 32.29 32.13 32.04 32.08 32.17 32.33 32.45 32.68 33.00 33.29 33.75 34.11 34.56 35.07 35.52 35.94
30.55 30.34 30.12 29.83 29.63 29.58 29.40 29.26 29.33 29.35 29.47 29.72 29.68 29.56 29.50 29.31 29.31 29.43 29.60 29.78 29.65 29.52 29.58 30.15 30.42 30.67 30.84 31.17 31.62 31.89 32.17 32.49 33.03 33.28 33.44 33.51 33.30 33.17 33.05 32.94 32.83 32.95 33.30 33.93 33.84 33.62 33.44 33.35 33.28 33.18 33.12 33.02 32.59 32.36 32.11 32.04 31.94 31.97 32.03 32.29 32.63 32.86 33.14 33.47 33.77 34.15 34.51 34.97 35.26
30.22 29.95 29.67 29.32 29.00 28.88 28.79 28.93 29.07 29.22 29.16 29.19 29.03 28.89 28.78 28.70 28.59 28.74 28.87 28.96 29.18 29.51 29.84 30.31 30.33 30.46 30.64 30.94 31.21 31.41 31.67 32.12 32.53 32.80 32.87 32.90 32.64 32.71 32.68 32.76 32.63 32.75 33.10 33.67 33.67 33.60 33.45 33.42 33.23 33.15 33.02 32.86 32.45 32.27 32.20 32.11 32.03 31.94 31.97 32.20 32.55 32.82 33.16 33.42 33.71 34.00 34.47 34.84 35.21
29.66 29.51 29.14 28.65 28.44 28.41 28.46 28.61 28.69 28.69 28.69 28.57 28.46 28.30 28.28 28.18 28.12 28.39 28.59 28.94 29.24 29.50 29.67 29.80 29.92 30.02 30.18 30.51 30.74 30.97 31.33 31.65 32.05 32.34 32.42 32.50 32.51 32.47 32.45 32.40 32.41 32.42 32.74 33.67 33.66 33.57 33.45 33.42 33.34 33.18 33.08 32.84 32.33 32.39 32.52 32.36 32.25 32.27 32.32 32.48 32.73 33.15 33.34 33.64 33.90 34.29 34.72 35.14 35.53
29.02 28.75 28.38 28.06 27.85 27.99 28.14 28.31 28.34 28.31 28.19 28.11 27.97 27.95 27.88 27.89 28.06 28.36 28.84 29.21 29.26 29.24 29.21 29.14 29.25 29.38 29.52 29.74 30.18 30.50 30.98 31.39 31.75 31.98 32.10 32.11 32.15 32.09 32.06 31.99 32.30 32.65 33.03 33.59 33.61 33.56 33.52 33.57 33.46 33.32 33.15 32.79 32.41 32.41 32.43 32.29 32.32 32.36 32.48 32.67 33.10 33.41 33.85 34.13 34.54 34.81 35.28 35.80 36.30
28.09 27.82 27.57 27.43 27.37 27.39 27.54 27.72 27.72 27.69 27.54 27.46 27.47 27.56 27.69 27.67 27.70 28.07 28.37 28.66 28.88 28.91 28.90 28.92 29.06 29.25 29.48 29.90 30.11 30.35 30.71 30.89 31.44 31.83 32.02 32.00 31.80 31.69 31.54 31.59 32.26 32.95 33.52 33.66 33.76 33.75 33.71 33.76 33.61 33.44 33.12 32.76 32.48 32.21 32.19 32.06 32.12 32.32 32.50 32.66 33.06 33.47 34.00 34.61 35.13 35.61 36.07 36.63 36.96
27.26 26.95 26.78 26.74 26.77 26.86 26.98 27.23 27.26 27.20 27.05 26.85 26.90 27.16 27.25 27.34 27.43 27.61 27.84 28.24 28.48 28.53 28.68 28.87 29.18 29.43 29.75 30.15 30.41 30.63 30.61 30.65 30.89 31.21 31.47 31.51 31.23 31.05 31.03 31.19 31.85 32.77 33.44 33.76 33.91 33.97 34.00 33.93 33.73 33.59 33.19 32.43 32.17 32.04 32.06 31.90 31.97 32.17 32.40 32.74 33.06 33.62 34.22 35.01 35.71 36.31 36.87 37.29 37.29
27.04 26.66 26.26 26.09 26.24 26.36 26.55 26.76 26.83 26.77 26.65 26.50 26.46 26.65 26.89 27.07 27.26 27.53 27.94 28.15 28.07 28.07 28.15 28.44 28.81 29.10 29.29 29.59 30.10 30.33 30.30 30.32 30.28 30.48 30.72 30.87 30.69 30.58 30.66 30.96 31.52 32.32 33.12 33.71 34.01 34.10 34.12 34.09 33.80 33.46 33.22 32.54 32.09 31.90 31.94 31.98 32.07 32.26 32.41 32.66 32.90 33.55 34.32 35.16 35.82 36.43 36.86 37.02 37.02
27.08 26.56 26.10 25.75 25.66 25.90 26.25 26.53 26.42 26.33 26.28 26.28 26.31 26.58 26.80 27.01 27.15 27.53 27.85 27.96 27.58 27.42 27.58 27.90 28.20 28.49 28.76 29.04 29.41 29.67 29.98 30.08 29.86 29.81 30.01 30.32 30.37 30.40 30.43 30.65 31.27 31.77 32.37 33.34 33.78 34.03 34.14 34.09 33.92 33.53 33.03 32.17 31.88 31.66 31.77 31.74 31.84 32.03 32.12 32.36 32.76 33.38 34.03 34.69 35.15 35.45 35.81 36.09 36.23
26.91 26.50 26.13 25.58 25.41 25.52 25.87 26.23 26.15 26.07 26.13 26.21 26.44 26.71 26.96 26.95 26.95 27.20 27.50 27.55 27.20 27.01 27.13 27.50 27.75 28.14 28.55 28.93 29.13 29.39 29.75 29.90 29.70 29.67 29.69 30.03 30.30 30.36 30.35 30.40 30.86 31.32 32.03 33.05 33.66 33.96 34.12 34.12 34.02 33.63 33.08 31.94 31.69 31.53 31.40 31.31 31.38 31.52 31.55 31.70 32.22 32.81 33.26 33.61 33.93 34.24 34.65 35.29 35.41
26.53 26.30 25.95 25.55 25.33 25.38 25.64 25.93 26.15 26.32 26.37 26.41 26.63 26.85 26.90 26.81 26.68 26.93 27.34 27.61 27.39 27.18 27.24 27.32 27.62 27.98 28.47 28.77 28.61 28.81 29.08 29.49 29.58 29.68 29.79 30.03 30.39 30.66 30.62 30.49 30.79 31.28 32.00 33.03 33.64 33.91 34.03 34.11 33.94 33.83 33.27 32.09 31.82 31.52 31.21 30.93 30.81 30.77 30.87 31.09 31.33 31.74 32.26 32.66 33.00 33.43 33.92 34.80 35.39
26.06 26.00 25.78 25.50 25.41 25.53 25.67 25.92 26.36 26.73 26.92 26.83 26.63 26.60 26.54 26.37 26.52 27.03 27.53 27.63 27.69 27.61 27.48 27.38 27.54 27.93 28.22 28.31 28.07 28.12 28.43 28.89 29.30 29.59 29.82 30.03 30.46 31.04 31.31 31.02 31.12 31.48 32.06 32.95 33.54 33.84 33.87 33.96 33.75 33.71 33.23 32.11 31.80 31.44 30.98 30.41 30.04 29.97 29.96 30.26 30.42 30.67 31.10 31.68 32.19 32.74 33.23 33.65 34.25
25.76 25.78 25.64 25.53 25.78 25.84 26.03 26.26 26.75 27.02 27.07 27.02 26.60 26.42 26.34 26.43 26.69 27.07 27.39 27.48 27.49 27.52 27.51 27.33 27.41 27.65 27.81 27.82 27.72 27.69 27.94 28.22 28.66 29.11 29.50 29.84 30.28 30.92 31.40 31.37 31.24 31.35 31.73 32.59 33.17 33.45 33.64 33.69 33.58 33.35 33.00 31.89 31.69 31.21 30.68 29.97 29.37 29.05 29.09 29.41 29.74 29.94 30.11 30.46 31.08 31.50 31.84 32.08 32.43
MSLP
1019.40 1019.40 1019.52 1019.56 1019.60 1019.56 1019.56 1019.60 1019.64 1019.64 1019.64 1019.60 1019.60 1019.60 1019.60 1019.60 1019.60 1019.60 1019.60 1019.56 1019.56 1019.52 1019.48 1019.48 1019.48 1019.44 1019.44 1019.48 1019.48 1019.48 1019.48 1019.44 1019.44 1019.40 1019.40 1019.36 1019.28 1019.24 1019.16 1019.12 1019.04 1018.96 1018.84 1018.68 1018.56 1018.40 1018.28 1018.12 1018.00 1017.84 1017.68 1017.52 1017.32 1017.16 1017.04 1016.96 1016.84 1016.68 1016.56 1016.40 1016.16 1015.96 1015.80 1015.64 1015.48 1015.32 1015.12 1014.96 1014.72
1019.48 1019.52 1019.56 1019.64 1019.68 1019.68 1019.68 1019.68 1019.72 1019.76 1019.80 1019.80 1019.80 1019.80 1019.80 1019.76 1019.72 1019.72 1019.68 1019.68 1019.68 1019.64 1019.64 1019.56 1019.56 1019.56 1019.56 1019.56 1019.56 1019.56 1019.56 1019.52 1019.44 1019.40 1019.36 1019.32 1019.28 1019.20 1019.12 1019.12 1019.00 1018.92 1018.84 1018.68 1018.56 1018.44 1018.28 1018.12 1017.96 1017.80 1017.60 1017.48 1017.32 1017.20 1017.08 1016.96 1016.88 1016.80 1016.64 1016.48 1016.28 1016.08 1015.84 1015.64 1015.44 1015.32 1015.20 1015.04 1014.84
1019.56 1019.60 1019.68 1019.68 1019.76 1019.84 1019.84 1019.84 1019.84 1019.92 1019.96 1019.96 1019.96 1019.96 1019.92 1019.88 1019.84 1019.84 1019.80 1019.76 1019.76 1019.72 1019.68 1019.64 1019.64 1019.60 1019.56 1019.60 1019.60 1019.60 1019.56 1019.52 1019.40 1019.36 1019.28 1019.28 1019.24 1019.16 1019.12 1019.08 1019.00 1018.88 1018.80 1018.68 1018.56 1018.44 1018.28 1018.12 1017.96 1017.80 1017.56 1017.40 1017.28 1017.16 1017.08 1017.00 1016.92 1016.84 1016.68 1016.56 1016.40 1016.20 1015.92 1015.60 1015.40 1015.24 1015.12 1014.96 1014.80
1019.68 1019.72 1019.80 1019.84 1019.92 1019.96 1019.96 1019.96 1020.00 1020.04 1020.04 1020.04 1020.08 1020.04 1019.96 1019.96 1019.92 1019.88 1019.84 1019.84 1019.84 1019.80 1019.72 1019.68 1019.64 1019.64 1019.60 1019.60 1019.56 1019.56 1019.48 1019.44 1019.40 1019.36 1019.28 1019.28 1019.24 1019.20 1019.12 1019.08 1019.00 1018.88 1018.80 1018.68 1018.60 1018.48 1018.32 1018.20 1018.04 1017.84 1017.56 1017.40 1017.28 1017.12 1017.00 1016.92 1016.84 1016.76 1016.64 1016.56 1016.44 1016.28 1016.04 1015.72 1015.48 1015.28 1015.04 1014.84 1014.68
1019.72 1019.80 1019.88 1019.96 1020.04 1020.08 1020.12 1020.12 1020.12 1020.16 1020.16 1020.16 1020.08 1020.04 1019.96 1019.96 1019.96 1019.92 1019.92 1019.92 1019.84 1019.84 1019.76 1019.72 1019.68 1019.64 1019.60 1019.60 1019.52 1019.48 1019.40 1019.40 1019.40 1019.36 1019.32 1019.28 1019.24 1019.20 1019.12 1019.08 1019.00 1018.88 1018.84 1018.72 1018.60 1018.48 1018.32 1018.24 1018.08 1017.84 1017.68 1017.48 1017.32 1017.12 1016.92 1016.84 1016.76 1016.68 1016.56 1016.48 1016.40 1016.28 1016.12 1015.96 1015.68 1015.40 1015.12 1014.84 1014.64
1019.84 1019.96 1020.00 1020.12 1020.16 1020.20 1020.24 1020.24 1020.24 1020.28 1020.24 1020.20 1020.12 1020.00 1019.96 1019.96 1019.96 1019.96 1019.96 1019.96 1019.88 1019.84 1019.76 1019.72 1019.68 1019.64 1019.56 1019.56 1019.48 1019.44 1019.40 1019.40 1019.40 1019.36 1019.32 1019.28 1019.20 1019.16 1019.12 1019.04 1018.96 1018.88 1018.84 1018.72 1018.60 1018.48 1018.40 1018.28 1018.04 1017.84 1017.68 1017.60 1017.36 1017.16 1017.04 1016.96 1016.80 1016.68 1016.52 1016.40 1016.28 1016.24 1016.12 1016.00 1015.84 1015.56 1015.28 1015.00 1014.68
1020.00 1020.08 1020.12 1020.24 1020.28 1020.28 1020.28 1020.28 1020.32 1020.28 1020.28 1020.20 1020.08 1020.00 1019.96 1019.96 1019.96 1019.96 1019.96 1019.96 1019.84 1019.80 1019.72 1019.68 1019.68 1019.64 1019.56 1019.56 1019.52 1019.52 1019.48 1019.44 1019.40 1019.36 1019.28 1019.28 1019.16 1019.12 1019.08 1019.04 1019.00 1018.92 1018.84 1018.76 1018.64 1018.52 1018.40 1018.28 1018.08 1017.84 1017.68 1017.60 1017.40 1017.28 1017.12 1017.08 1016.92 1016.80 1016.60 1016.40 1016.24 1016.12 1016.00 1015.84 1015.76 1015.60 1015.32 1015.00 1014.68
1020.20 1020.20 1020.24 1020.28 1020.32 1020.32 1020.32 1020.36 1020.36 1020.32 1020.28 1020.16 1020.12 1020.08 1020.04 1020.00 1019.96 1019.96 1019.92 1019.84 1019.80 1019.72 1019.68 1019.68 1019.68 1019.68 1019.68 1019.64 1019.56 1019.56 1019.48 1019.40 1019.36 1019.28 1019.28 1019.24 1019.12 1019.12 1019.08 1019.04 1018.96 1018.92 1018.84 1018.80 1018.68 1018.56 1018.40 1018.32 1018.12 1017.88 1017.68 1017.56 1017.40 1017.28 1017.16 1017.12 1017.00 1016.84 1016.68 1016.52 1016.36 1016.16 1015.96 1015.80 1015.68 1015.52 1015.32 1015.04 1014.76
1020.28 1020.28 1020.32 1020.36 1020.36 1020.36 1020.36 1020.40 1020.36 1020.32 1020.28 1020.20 1020.20 1020.16 1020.12 1020.08 1020.00 1019.96 1019.88 1019.84 1019.76 1019.72 1019.68 1019.68 1019.68 1019.68 1019.68 1019.64 1019.56 1019.52 1019.48 1019.40 1019.32 1019.28 1019.20 1019.16 1019.12 1019.04 1019.00 1019.00 1018.92 1018.84 1018.80 1018.72 1018.64 1018.52 1018.40 1018.28 1018.12 1017.88 1017.68 1017.56 1017.40 1017.28 1017.12 1017.12 1017.00 1016.84 1016.64 1016.56 1016.40 1016.28 1016.12 1015.92 1015.68 1015.52 1015.32 1015.12 1014.84
1020.28 1020.36 1020.40 1020.40 1020.40 1020.40 1020.40 1020.40 1020.36 1020.32 1020.28 1020.24 1020.24 1020.24 1020.16 1020.12 1020.00 1019.96 1019.88 1019.84 1019.80 1019.76 1019.76 1019.72 1019.72 1019.68 1019.64 1019.56 1019.52 1019.44 1019.40 1019.36 1019.28 1019.24 1019.16 1019.12 1019.08 1019.00 1018.96 1018.88 1018.84 1018.76 1018.68 1018.64 1018.56 1018.44 1018.32 1018.20 1018.00 1017.84 1017.72 1017.60 1017.44 1017.28 1017.20 1017.08 1016.96 1016.80 1016.64 1016.48 1016.36 1016.20 1016.04 1015.88 1015.72 1015.56 1015.32 1015.12 1014.88
1020.28 1020.36 1020.40 1020.44 1020.48 1020.48 1020.44 1020.40 1020.36 1020.36 1020.32 1020.28 1020.28 1020.28 1020.20 1020.08 1020.00 1019.96 1019.92 1019.92 1019.84 1019.84 1019.76 1019.72 1019.68 1019.68 1019.60 1019.56 1019.48 1019.40 1019.40 1019.32 1019.28 1019.20 1019.12 1019.08 1019.00 1018.96 1018.84 1018.80 1018.76 1018.68 1018.56 1018.52 1018.48 1018.40 1018.24 1018.12 1017.96 1017.80 1017.68 1017.56 1017.40 1017.28 1017.12 1017.00 1016.84 1016.72 1016.56 1016.40 1016.28 1016.12 1015.92 1015.76 1015.60 1015.44 1015.28 1015.08 1014.84
1020.28 1020.36 1020.40 1020.40 1020.44 1020.48 1020.44 1020.40 1020.40 1020.40 1020.36 1020.28 1020.28 1020.24 1020.12 1020.08 1020.00 1019.96 1019.96 1019.96 1019.84 1019.80 1019.72 1019.72 1019.68 1019.68 1019.60 1019.56 1019.44 1019.40 1019.32 1019.28 1019.24 1019.16 1019.08 1019.00 1018.96 1018.88 1018.80 1018.72 1018.64 1018.56 1018.48 1018.44 1018.36 1018.24 1018.12 1017.96 1017.84 1017.68 1017.56 1017.48 1017.36 1017.24 1017.04 1016.88 1016.72 1016.56 1016.40 1016.24 1016.12 1015.96 1015.84 1015.64 1015.52 1015.36 1015.16 1014.96 1014.72
1020.28 1020.36 1020.40 1020.40 1020.44 1020.48 1020.44 1020.44 1020.40 1020.40 1020.32 1020.28 1020.28 1020.20 1020.12 1020.12 1020.08 1020.00 1019.96 1019.96 1019.88 1019.84 1019.80 1019.76 1019.68 1019.64 1019.56 1019.48 1019.40 1019.36 1019.28 1019.20 1019.16 1019.12 1019.00 1018.92 1018.88 1018.80 1018.68 1018.60 1018.52 1018.44 1018.40 1018.28 1018.24 1018.12 1017.96 1017.84 1017.68 1017.56 1017.44 1017.36 1017.28 1017.12 1017.00 1016.84 1016.68 1016.48 1016.28 1016.12 1015.96 1015.84 1015.68 1015.56 1015.40 1015.28 1015.08 1014.88 1014.68
1020.28 1020.32 1020.36 1020.36 1020.40 1020.40 1020.40 1020.40 1020.36 1020.32 1020.28 1020.28 1020.24 1020.16 1020.12 1020.12 1020.12 1020.04 1019.96 1019.96 1019.88 1019.84 1019.80 1019.72 1019.68 1019.64 1019.56 1019.44 1019.40 1019.28 1019.24 1019.16 1019.12 1019.00 1018.96 1018.84 1018.80 1018.68 1018.60 1018.52 1018.40 1018.36 1018.28 1018.20 1018.12 1018.00 1017.88 1017.72 1017.60 1017.48 1017.40 1017.28 1017.12 1017.04 1016.96 1016.84 1016.64 1016.44 1016.28 1016.08 1015.88 1015.72 1015.60 1015.48 1015.32 1015.16 1015.00 1014.80 1014.56
1020.24 1020.28 1020.28 1020.32 1020.36 1020.36 1020.32 1020.28 1020.28 1020.28 1020.28 1020.28 1020.20 1020.16 1020.16 1020.12 1020.12 1020.08 1020.00 1019.96 1019.92 1019.88 1019.84 1019.72 1019.64 1019.56 1019.48 1019.40 1019.32 1019.24 1019.16 1019.12 1019.00 1018.96 1018.84 1018.72 1018.68 1018.60 1018.52 1018.40 1018.32 1018.24 1018.16 1018.08 1018.00 1017.92 1017.80 1017.68 1017.56 1017.40 1017.28 1017.12 1017.00 1016.92 1016.84 1016.68 1016.56 1016.40 1016.24 1016.04 1015.84 1015.68 1015.56 1015.36 1015.24 1015.08 1014.88 1014.68 1014.48
1020.12 1020.20 1020.28 1020.28 1020.28 1020.28 1020.28 1020.28 1020.28 1020.28 1020.28 1020.24 1020.20 1020.20 1020.16 1020.16 1020.12 1020.12 1020.08 1020.00 1019.96 1019.88 1019.84 1019.72 1019.64 1019.56 1019.44 1019.36 1019.28 1019.20 1019.12 1019.00 1018.92 1018.84 1018.72 1018.64 1018.56 1018.48 1018.40 1018.28 1018.24 1018.12 1018.04 1017.96 1017.88 1017.80 1017.72 1017.64 1017.48 1017.36 1017.20 1017.04 1016.88 1016.76 1016.64 1016.56 1016.40 1016.28 1016.12 1015.96 1015.80 1015.60 1015.40 1015.20 1015.08 1014.88 1014.72 1014.56 1014.40
1020.08 1020.16 1020.20 1020.24 1020.24 1020.24 1020.28 1020.28 1020.28 1020.28 1020.28 1020.24 1020.24 1020.20 1020.16 1020.16 1020.12 1020.12 1020.08 1020.04 1019.96 1019.84 1019.76 1019.68 1019.60 1019.52 1019.40 1019.28 1019.20 1019.12 1019.00 1018.92 1018.84 1018.72 1018.64 1018.52 1018.40 1018.36 1018.28 1018.20 1018.12 1018.04 1017.96 1017.84 1017.76 1017.68 1017.60 1017.48 1017.40 1017.28 1017.08 1016.92 1016.76 1016.60 1016.48 1016.36 1016.24 1016.12 1015.96 1015.84 1015.68 1015.44 1015.28 1015.08 1014.88 1014.72 1014.56 1014.40 1014.24
1020.08 1020.12 1020.16 1020.24 1020.24 1020.28 1020.28 1020.28 1020.28 1020.28 1020.28 1020.28 1020.24 1020.20 1020.20 1020.16 1020.12 1020.12 1020.08 1020.00 1019.96 1019.84 1019.68 1019.60 1019.56 1019.48 1019.36 1019.24 1019.12 1019.08 1018.96 1018.84 1018.72 1018.64 1018.52 1018.40 1018.36 1018.28 1018.16 1018.12 1018.04 1017.96 1017.84 1017.76 1017.68 1017.56 1017.44 1017.32 1017.24 1017.12 1017.00 1016.84 1016.68 1016.48 1016.32 1016.20 1016.12 1015.96 1015.84 1015.68 1015.56 1015.32 1015.12 1014.96 1014.76 1014.60 1014.48 1014.32 1014.12
1020.12 1020.16 1020.16 1020.24 1020.24 1020.28 1020.28 1020.28 1020.28 1020.28 1020.28 1020.28 1020.24 1020.20 1020.20 1020.16 1020.12 1020.12 1020.00 1019.96 1019.88 1019.80 1019.68 1019.60 1019.48 1019.40 1019.28 1019.20 1019.12 1019.00 1018.84 1018.72 1018.60 1018.52 1018.40 1018.28 1018.24 1018.16 1018.08 1018.00 1017.92 1017.84 1017.72 1017.64 1017.56 1017.44 1017.32 1017.24 1017.12 1017.00 1016.84 1016.68 1016.56 1016.40 1016.24 1016.08 1015.96 1015.80 1015.68 1015.52 1015.36 1015.16 1014.96 1014.76 1014.60 1014.40 1014.28 1014.12 1014.00
1020.12 1020.16 1020.20 1020.24 1020.28 1020.28 1020.28 1020.32 1020.28 1020.28 1020.28 1020.28 1020.24 1020.16 1020.16 1020.12 1020.12 1020.04 1019.96 1019.88 1019.84 1019.76 1019.68 1019.56 1019.44 1019.36 1019.24 1019.12 1019.00 1018.88 1018.76 1018.64 1018.52 1018.40 1018.28 1018.20 1018.12 1018.00 1017.96 1017.84 1017.76 1017.68 1017.60 1017.48 1017.40 1017.28 1017.20 1017.12 1017.00 1016.88 1016.76 1016.56 1016.40 1016.28 1016.12 1015.92 1015.76 1015.60 1015.48 1015.36 1015.24 1015.12 1014.92 1014.72 1014.56 1014.40 1014.24 1014.08 1013.92
1020.16 1020.20 1020.28 1020.28 1020.28 1020.28 1020.28 1020.32 1020.28 1020.28 1020.28 1020.24 1020.20 1020.16 1020.12 1020.08 1020.00 1019.96 1019.92 1019.84 1019.80 1019.68 1019.64 1019.56 1019.44 1019.32 1019.16 1019.04 1018.88 1018.80 1018.68 1018.56 1018.44 1018.36 1018.24 1018.12 1017.96 1017.88 1017.80 1017.68 1017.60 1017.56 1017.48 1017.40 1017.28 1017.16 1017.08 1017.00 1016.88 1016.76 1016.60 1016.44 1016.28 1016.12 1015.96 1015.84 1015.68 1015.56 1015.44 1015.36 1015.28 1015.12 1015.00 1014.84 1014.68 1014.52 1014.32 1014.12 1013.96
1020.20 1020.24 1020.28 1020.28 1020.32 1020.32 1020.32 1020.28 1020.28 1020.28 1020.28 1020.20 1020.16 1020.12 1020.12 1020.04 1019.96 1019.88 1019.84 1019.80 1019.72 1019.68 1019.60 1019.52 1019.40 1019.24 1019.12 1018.96 1018.84 1018.68 1018.60 1018.48 1018.36 1018.28 1018.12 1017.96 1017.84 1017.72 1017.64 1017.56 1017.48 1017.40 1017.32 1017.24 1017.12 1017.04 1016.92 1016.84 1016.68 1016.60 1016.48 1016.32 1016.16 1016.04 1015.96 1015.84 1015.72 1015.60 1015.44 1015.32 1015.24 1015.12 1014.96 1014.84 1014.68 1014.48 1014.28 1014.12 1013.92
1020.20 1020.28 1020.28 1020.28 1020.28 1020.28 1020.28 1020.28 1020.28 1020.24 1020.20 1020.12 1020.12 1020.08 1020.04 1019.96 1019.92 1019.84 1019.84 1019.80 1019.72 1019.64 1019.56 1019.44 1019.32 1019.16 1019.00 1018.88 1018.72 1018.56 1018.44 1018.28 1018.20 1018.08 1017.96 1017.84 1017.68 1017.56 1017.48 1017.40 1017.32 1017.24 1017.12 1017.04 1016.96 1016.84 1016.76 1016.68 1016.56 1016.48 1016.40 1016.28 1016.16 1016.04 1015.96 1015.84 1015.72 1015.56 1015.40 1015.28 1015.12 1015.00 1014.84 1014.68 1014.52 1014.36 1014.16 1013.96 1013.84
1020.20 1020.28 1020.28 1020.28 1020.28 1020.28 1020.28 1020.24 1020.20 1020.16 1020.12 1020.08 1020.04 1020.04 1019.96 1019.92 1019.84 1019.80 1019.80 1019.72 1019.64 1019.56 1019.44 1019.32 1019.20 1019.08 1018.92 1018.76 1018.60 1018.40 1018.28 1018.12 1017.96 1017.84 1017.68 1017.60 1017.48 1017.40 1017.28 1017.20 1017.12 1017.04 1016.96 1016.84 1016.76 1016.68 1016.60 1016.56 1016.48 1016.40 1016.32 1016.28 1016.16 1016.08 1015.96 1015.84 1015.68 1015.56 1015.36 1015.16 1015.00 1014.84 1014.64 1014.52 1014.36 1014.24 1014.08 1013.88 1013.68
1020.24 1020.24 1020.28 1020.24 1020.24 1020.24 1020.20 1020.16 1020.12 1020.08 1020.08 1020.08 1020.04 1020.00 1019.96 1019.88 1019.80 1019.76 1019.68 1019.60 1019.52 1019.44 1019.32 1019.16 1019.08 1018.92 1018.76 1018.60 1018.40 1018.28 1018.08 1017.92 1017.76 1017.60 1017.44 1017.32 1017.24 1017.16 1017.08 1017.00 1016.92 1016.84 1016.68 1016.60 1016.52 1016.48 1016.44 1016.44 1016.40 1016.36 1016.28 1016.20 1016.12 1015.96 1015.80 1015.68 1015.56 1015.40 1015.24 1015.04 1014.84 1014.68 1014.48 1014.28 1014.12 1014.04 1013.88 1013.68 1013.52
1020.24 1020.24 1020.24 1020.24 1020.20 1020.16 1020.16 1020.12 1020.12 1020.12 1020.08 1020.04 1020.00 1019.96 1019.92 1019.84 1019.76 1019.68 1019.60 1019.48 1019.36 1019.28 1019.16 1019.00 1018.88 1018.72 1018.56 1018.40 1018.20 1018.00 1017.84 1017.68 1017.52 1017.36 1017.20 1017.12 1017.00 1016.88 1016.80 1016.68 1016.60 1016.52 1016.40 1016.40 1016.32 1016.32 1016.32 1016.32 1016.28 1016.28 1016.24 1016.12 1015.96 1015.84 1015.68 1015.52 1015.40 1015.28 1015.12 1014.92 1014.76 1014.56 1014.36 1014.12 1013.92 1013.80 1013.64 1013.48 1013.28
1020.20 1020.20 1020.20 1020.20 1020.16 1020.12 1020.12 1020.12 1020.12 1020.12 1020.08 1020.04 1019.96 1019.92 1019.84 1019.80 1019.72 1019.60 1019.52 1019.40 1019.28 1019.12 1019.00 1018.84 1018.68 1018.48 1018.28 1018.08 1017.88 1017.72 1017.60 1017.40 1017.28 1017.12 1017.00 1016.84 1016.76 1016.68 1016.56 1016.40 1016.36 1016.28 1016.24 1016.20 1016.20 1016.20 1016.24 1016.20 1016.16 1016.12 1016.12 1016.00 1015.88 1015.72 1015.56 1015.40 1015.24 1015.12 1014.96 1014.80 1014.60 1014.40 1014.24 1014.00 1013.80 1013.60 1013.40 1013.24 1013.08
1020.16 1020.20 1020.16 1020.16 1020.16 1020.12 1020.12 1020.12 1020.12 1020.08 1020.04 1020.00 1019.92 1019.88 1019.84 1019.72 1019.64 1019.52 1019.40 1019.28 1019.12 1019.00 1018.84 1018.64 1018.44 1018.28 1018.08 1017.84 1017.68 1017.56 1017.40 1017.28 1017.12 1017.00 1016.84 1016.68 1016.56 1016.44 1016.36 1016.24 1016.16 1016.12 1016.12 1016.12 1016.12 1016.12 1016.12 1016.08 1016.00 1015.96 1015.96 1015.88 1015.76 1015.64 1015.48 1015.28 1015.12 1014.96 1014.80 1014.64 1014.44 1014.28 1014.08 1013.88 1013.68 1013.48 1013.28 1013.12 1012.92
1020.20 1020.20 1020.16 1020.16 1020.12 1020.12 1020.12 1020.12 1020.12 1020.08 1020.00 1019.96 1019.88 1019.84 1019.72 1019.68 1019.56 1019.40 1019.28 1019.12 1019.00 1018.84 1018.68 1018.44 1018.28 1018.08 1017.92 1017.72 1017.56 1017.40 1017.28 1017.12 1016.96 1016.84 1016.68 1016.56 1016.44 1016.32 1016.24 1016.20 1016.12 1016.08 1016.04 1016.04 1016.04 1016.00 1015.96 1015.92 1015.84 1015.80 1015.72 1015.72 1015.64 1015.52 1015.36 1015.16 1015.00 1014.84 1014.64 1014.44 1014.28 1014.12 1013.92 1013.76 1013.56 1013.40 1013.20 1013.00 1012.80
1020.24 1020.20 1020.20 1020.20 1020.16 1020.16 1020.12 1020.12 1020.12 1020.08 1020.00 1019.96 1019.84 1019.80 1019.68 1019.60 1019.48 1019.36 1019.20 1019.04 1018.84 1018.68 1018.56 1018.32 1018.16 1017.96 1017.80 1017.64 1017.44 1017.28 1017.12 1016.96 1016.80 1016.68 1016.56 1016.40 1016.32 1016.28 1016.16 1016.12 1016.00 1015.96 1015.96 1015.96 1015.92 1015.88 1015.84 1015.76 1015.68 1015.64 1015.56 1015.52 1015.48 1015.36 1015.20 1015.00 1014.84 1014.64 1014.40 1014.24 1014.08 1013.92 1013.76 1013.56 1013.40 1013.20 1013.04 1012.84 1012.64
1020.24 1020.24 1020.20 1020.20 1020.16 1020.16 1020.12 1020.12 1020.08 1020.04 1019.96 1019.88 1019.84 1019.72 1019.64 1019.52 1019.40 1019.24 1019.08 1018.88 1018.72 1018.56 1018.36 1018.16 1018.00 1017.84 1017.68 1017.48 1017.32 1017.16 1017.00 1016.84 1016.68 1016.56 1016.48 1016.40 1016.28 1016.16 1016.08 1015.96 1015.92 1015.84 1015.84 1015.80 1015.76 1015.68 1015.68 1015.56 1015.52 1015.44 1015.40 1015.32 1015.28 1015.12 1015.00 1014.84 1014.64 1014.44 1014.28 1014.04 1013.88 1013.72 1013.56 1013.36 1013.20 1013.00 1012.80 1012.60 1012.40
1020.28 1020.24 1020.20 1020.20 1020.16 1020.12 1020.12 1020.08 1020.04 1020.00 1019.92 1019.84 1019.76 1019.68 1019.56 1019.40 1019.28 1019.12 1018.96 1018.76 1018.56 1018.40 1018.20 1018.00 1017.84 1017.68 1017.56 1017.40 1017.24 1017.08 1016.92 1016.76 1016.68 1016.56 1016.44 1016.36 1016.24 1016.08 1015.96 1015.84 1015.84 1015.76 1015.68 1015.64 1015.56 1015.56 1015.48 1015.40 1015.32 1015.24 1015.16 1015.12 1015.04 1014.92 1014.76 1014.60 1014.40 1014.24 1014.00 1013.84 1013.64 1013.52 1013.36 1013.16 1012.92 1012.72 1012.56 1012.40 1012.20
1020.28 1020.28 1020.24 1020.24 1020.16 1020.12 1020.12 1020.04 1020.00 1019.96 1019.84 1019.76 1019.68 1019.60 1019.48 1019.32 1019.16 1019.00 1018.84 1018.68 1018.44 1018.28 1018.12 1017.96 1017.80 1017.64 1017.48 1017.32 1017.12 1017.00 1016.84 1016.72 1016.64 1016.52 1016.40 1016.28 1016.16 1016.00 1015.84 1015.76 1015.68 1015.64 1015.56 1015.48 1015.40 1015.36 1015.28 1015.20 1015.08 1015.00 1014.96 1014.88 1014.80 1014.68 1014.56 1014.40 1014.20 1013.96 1013.76 1013.56 1013.40 1013.28 1013.12 1012.92 1012.72 1012.48 1012.28 1012.08 1011.92
1020.32 1020.28 1020.24 1020.24 1020.16 1020.12 1020.08 1020.00 1019.96 1019.88 1019.80 1019.68 1019.60 1019.52 1019.40 1019.24 1019.04 1018.84 1018.68 1018.56 1018.36 1018.20 1018.08 1017.92 1017.76 1017.60 1017.44 1017.28 1017.12 1016.96 1016.80 1016.68 1016.56 1016.44 1016.32 1016.24 1016.12 1015.96 1015.80 1015.68 1015.56 1015.48 1015.40 1015.28 1015.20 1015.12 1015.00 1014.96 1014.84 1014.76 1014.68 1014.64 1014.56 1014.44 1014.32 1014.12 1013.96 1013.76 1013.56 1013.32 1013.16 1013.00 1012.84 1012.68 1012.44 1012.24 1012.00 1011.84 1011.68
1020.32 1020.28 1020.24 1020.24 1020.16 1020.12 1020.04 1019.96 1019.88 1019.84 1019.72 1019.64 1019.52 1019.40 1019.28 1019.12 1018.96 1018.76 1018.56 1018.40 1018.28 1018.12 1018.00 1017.84 1017.68 1017.52 1017.36 1017.20 1017.04 1016.88 1016.76 1016.60 1016.48 1016.40 1016.32 1016.20 1016.08 1015.92 1015.76 1015.60 1015.44 1015.28 1015.16 1015.08 1015.00 1014.88 1014.80 1014.72 1014.64 1014.56 1014.52 1014.44 1014.36 1014.24 1014.08 1013.88 1013.68 1013.52 1013.28 1013.12 1012.92 1012.76 1012.60 1012.40 1012.20 1011.96 1011.76 1011.60 1011.44
1020.36 1020.32 1020.28 1020.24 1020.16 1020.08 1020.00 1019.92 1019.84 1019.72 1019.64 1019.56 1019.40 1019.28 1019.16 1019.00 1018.84 1018.68 1018.52 1018.36 1018.20 1018.08 1017.92 1017.76 1017.60 1017.40 1017.28 1017.08 1016.96 1016.84 1016.72 1016.60 1016.48 1016.36 1016.28 1016.12 1016.00 1015.84 1015.68 1015.48 1015.28 1015.12 1015.00 1014.92 1014.84 1014.72 1014.60 1014.52 1014.44 1014.40 1014.32 1014.28 1014.12 1014.00 1013.84 1013.68 1013.52 1013.28 1013.12 1012.92 1012.72 1012.56 1012.36 1012.16 1011.96 1011.80 1011.60 1011.44 1011.28
1020.40 1020.36 1020.28 1020.24 1020.12 1020.04 1019.96 1019.88 1019.76 1019.68 1019.56 1019.48 1019.36 1019.20 1019.04 1018.88 1018.72 1018.56 1018.40 1018.28 1018.12 1017.96 1017.84 1017.68 1017.52 1017.36 1017.16 1017.00 1016.92 1016.80 1016.68 1016.60 1016.44 1016.32 1016.16 1016.04 1015.92 1015.76 1015.56 1015.32 1015.16 1015.00 1014.92 1014.80 1014.68 1014.56 1014.44 1014.36 1014.28 1014.20 1014.12 1014.04 1013.92 1013.80 1013.64 1013.52 1013.32 1013.12 1012.92 1012.72 1012.56 1012.36 1012.16 1011.96 1011.84 1011.68 1011.52 1011.32 1011.20
1020.40 1020.40 1020.32 1020.24 1020.12 1020.00 1019.92 1019.84 1019.68 1019.60 1019.48 1019.36 1019.28 1019.12 1018.96 1018.80 1018.64 1018.52 1018.40 1018.28 1018.12 1017.92 1017.72 1017.56 1017.40 1017.28 1017.12 1016.96 1016.84 1016.68 1016.60 1016.52 1016.40 1016.24 1016.08 1015.92 1015.80 1015.64 1015.44 1015.16 1015.00 1014.88 1014.80 1014.64 1014.48 1014.36 1014.28 1014.16 1014.12 1014.04 1013.96 1013.88 1013.76 1013.64 1013.48 1013.32 1013.12 1013.00 1012.80 1012.60 1012.40 1012.24 1012.04 1011.92 1011.72 1011.56 1011.36 1011.20 1011.08
1020.44 1020.40 1020.32 1020.24 1020.08 1019.96 1019.84 1019.72 1019.64 1019.52 1019.40 1019.24 1019.12 1019.00 1018.84 1018.72 1018.60 1018.48 1018.36 1018.24 1018.08 1017.88 1017.68 1017.48 1017.32 1017.20 1017.04 1016.92 1016.76 1016.60 1016.44 1016.36 1016.28 1016.12 1015.96 1015.80 1015.64 1015.48 1015.28 1015.08 1014.84 1014.68 1014.56 1014.44 1014.28 1014.16 1014.08 1013.96 1013.92 1013.84 1013.80 1013.72 1013.60 1013.48 1013.32 1013.20 1013.00 1012.84 1012.68 1012.52 1012.28 1012.12 1011.96 1011.80 1011.64 1011.44 1011.28 1011.08 1010.96
1020.44 1020.40 1020.28 1020.20 1020.04 1019.88 1019.76 1019.64 1019.56 1019.40 1019.28 1019.16 1019.04 1018.92 1018.84 1018.68 1018.56 1018.44 1018.28 1018.12 1017.96 1017.76 1017.60 1017.44 1017.28 1017.12 1017.00 1016.84 1016.68 1016.52 1016.32 1016.20 1016.08 1015.96 1015.84 1015.68 1015.52 1015.32 1015.12 1015.00 1014.72 1014.56 1014.36 1014.24 1014.12 1014.00 1013.92 1013.84 1013.76 1013.68 1013.64 1013.56 1013.48 1013.36 1013.24 1013.12 1012.96 1012.76 1012.60 1012.44 1012.24 1012.04 1011.84 1011.68 1011.56 1011.40 1011.24 1011.00 1010.88
1020.44 1020.32 1020.24 1020.12 1019.96 1019.84 1019.68 1019.56 1019.40 1019.28 1019.20 1019.12 1019.00 1018.92 1018.80 1018.64 1018.48 1018.32 1018.16 1017.96 1017.84 1017.68 1017.56 1017.40 1017.20 1017.04 1016.92 1016.80 1016.64 1016.44 1016.24 1016.08 1015.96 1015.84 1015.68 1015.56 1015.36 1015.20 1015.00 1014.84 1014.64 1014.40 1014.28 1014.12 1014.04 1013.96 1013.84 1013.72 1013.68 1013.60 1013.52 1013.48 1013.40 1013.28 1013.16 1013.04 1012.88 1012.68 1012.52 1012.36 1012.20 1012.00 1011.84 1011.60 1011.48 1011.32 1011.20 1011.00 1010.84
Wind_Speed
4 3 3 3 3 3 3 3 3 3 3 3 4 4 4 4 4 4 3 3 4 4 4 4 4 5 6 7 8 9 9 9 10 10 10 10 10 10 10 10 10 11 11 12 12 11 10 10 9 8 7 6 7 7 7 6 7 8 9 9 9 9 10 12 12 13 14 15 13
4 4 3 3 3 3 3 3 3 3 3 4 3 4 4 4 4 3 3 3 3 4 4 4 5 6 7 8 8 9 9 9 10 10 10 10 10 10 10 9 10 10 10 11 11 10 9 9 9 8 7 7 7 7 7 7 7 8 10 11 9 9 9 10 11 12 13 14 13
4 4 4 4 4 4 3 3 3 4 4 4 3 3 3 3 3 3 3 3 4 4 4 4 5 6 7 8 8 8 8 9 10 10 10 9 10 10 10 10 11 10 10 10 10 9 9 9 9 8 7 7 7 7 7 8 8 8 9 11 9 8 8 8 9 10 10 10 11
4 4 4 4 5 5 4 3 4 4 4 4 3 3 3 3 3 3 4 4 5 5 5 5 5 6 6 7 8 8 8 9 9 10 10 9 10 11 11 11 11 11 11 10 10 10 11 11 9 8 8 8 8 8 7 7 7 7 8 8 8 8 9 9 9 8 8 9 11
4 4 4 4 5 4 4 3 4 4 4 3 3 3 3 3 3 3 4 4 5 5 5 6 6 5 5 7 8 9 9 9 9 9 9 10 10 10 11 11 11 11 11 10 10 11 11 11 9 8 8 9 8 8 8 8 8 7 7 7 7 7 8 9 9 9 9 9 9
4 4 4 4 4 4 3 3 4 4 4 4 4 3 3 3 3 4 4 4 5 6 6 6 5 5 6 7 8 8 8 9 8 8 9 10 10 10 11 11 11 11 10 10 11 11 11 10 8 7 7 8 8 9 10 10 9 8 7 7 6 7 8 9 9 9 10 10 11
4 4 4 4 3 3 3 4 4 4 4 4 4 5 5 5 5 5 5 5 5 5 5 4 5 5 6 7 8 8 9 9 9 9 9 9 9 10 10 10 10 10 11 11 11 11 10 9 8 7 7 7 7 8 10 10 10 9 9 8 7 6 7 9 9 9 11 13 14
4 4 4 4 3 3 4 4 4 4 4 4 4 5 6 6 6 7 6 6 5 5 4 3 5 6 7 7 8 8 9 9 9 9 9 9 10 10 10 10 10 10 10 10 10 11 10 9 8 7 7 6 6 7 8 9 10 10 11 11 9 8 7 8 8 9 11 14 15
3 3 4 4 4 4 5 5 5 5 5 5 5 6 7 7 7 7 6 5 5 5 5 4 5 6 7 8 8 8 8 8 9 9 9 9 10 10 10 9 9 9 9 9 10 11 11 9 8 7 7 7 7 7 7 9 10 10 10 10 9 10 10 9 9 10 12 14 16
3 3 3 4 4 5 5 5 5 5 5 5 6 6 7 6 6 6 6 5 6 6 6 6 6 7 8 8 8 8 8 8 8 9 9 9 10 10 10 9 9 9 9 8 9 10 10 9 8 8 8 8 9 9 10 11 11 11 11 8 10 11 13 12 13 13 13 13 15
3 3 3 3 4 5 5 5 5 5 5 5 6 6 6 6 6 6 6 6 6 7 7 7 7 8 8 8 7 8 8 8 8 8 9 10 10 10 10 10 10 10 10 9 9 8 8 7 8 9 9 10 10 10 11 11 12 12 12 10 11 13 14 14 14 14 13 13 15
3 3 3 3 4 4 5 5 4 4 5 5 5 6 6 6 7 7 7 7 8 8 8 8 8 8 8 7 7 7 8 8 9 9 10 10 11 11 11 11 11 11 11 10 9 8 7 7 8 9 10 11 9 9 10 11 12 13 13 12 12 12 13 14 15 14 13 13 15
3 3 3 4 4 4 5 5 4 4 4 5 5 6 6 6 7 7 7 8 8 7 7 8 8 8 7 7 8 8 8 9 9 10 10 10 11 11 11 11 11 11 11 10 9 8 8 8 9 10 10 11 9 9 10 12 12 12 12 12 12 12 12 13 14 15 15 15 16
3 3 3 4 4 4 4 4 4 4 5 5 6 6 6 7 7 7 7 8 8 8 8 8 7 7 7 8 8 9 9 9 10 10 11 11 11 11 11 11 11 11 10 10 9 9 9 10 10 10 10 11 11 11 12 12 13 13 13 13 13 13 13 13 14 14 15 16 17
3 3 4 4 4 4 4 4 4 4 5 6 6 6 6 6 7 7 7 8 8 8 8 8 7 8 8 9 9 10 10 10 10 11 11 11 11 11 11 11 11 11 10 10 10 10 10 11 11 11 11 11 11 12 12 12 13 13 13 13 14 14 14 14 14 14 14 15 15
3 4 4 4 4 5 5 5 4 4 5 6 6 7 7 6 6 7 7 8 8 8 8 8 8 8 9 9 10 10 10 10 10 11 11 11 11 11 11 12 12 11 11 11 11 10 10 10 10 11 12 12 12 12 12 12 13 13 14 14 14 15 15 15 14 14 13 14 14
4 4 4 5 5 5 5 5 5 5 5 6 7 7 7 7 6 7 7 8 8 8 9 9 9 9 9 9 9 9 9 10 10 10 10 11 11 11 12 12 12 12 12 11 11 10 10 10 10 11 12 12 12 12 12 12 12 13 14 14 15 15 15 14 13 13 13 13 14
4 4 5 5 5 6 6 6 6 6 6 7 7 7 7 7 7 7 8 8 9 9 10 11 10 10 10 10 9 9 9 9 10 10 11 11 11 12 12 12 12 12 12 11 11 11 10 11 11 11 11 12 12 11 11 11 12 12 13 14 15 15 15 14 14 13 13 13 14
4 5 5 5 6 6 6 6 6 6 7 7 7 7 7 8 8 8 8 8 9 10 11 11 10 10 10 11 10 10 9 10 10 11 11 11 11 12 12 12 12 12 11 11 11 11 11 11 11 12 12 12 12 12 12 12 12 12 13 14 14 15 15 14 14 13 13 13 13
5 5 5 5 6 6 6 6 6 7 7 7 7 8 8 8 8 9 9 9 9 10 10 11 11 11 11 11 11 11 10 9 10 11 12 11 11 12 12 12 12 11 11 11 11 11 11 11 11 12 12 12 12 12 12 12 11 12 12 12 12 13 14 14 13 13 12 12 12
5 5 5 5 6 6 6 6 6 7 7 7 8 8 8 9 9 9 9 9 10 10 10 11 11 11 11 12 12 11 11 9 10 11 11 11 12 12 12 12 11 11 10 10 11 11 11 11 11 11 12 12 12 12 12 11 11 11 11 11 11 13 14 14 14 14 13 13 13
5 5 5 5 5 6 6 6 6 6 7 7 7 8 8 8 9 9 9 9 10 10 10 10 11 11 12 12 12 12 11 10 10 11 11 11 11 11 11 11 11 10 10 10 10 10 10 10 10 11 11 10 11 11 11 11 12 12 13 13 13 14 14 14 14 14 14 14 14
5 5 5 5 5 6 6 6 6 7 7 7 8 8 8 8 9 9 9 9 9 9 10 10 10 11 12 12 12 12 12 11 11 11 11 11 11 11 11 10 10 9 9 9 8 9 9 9 9 9 10 10 10 11 12 12 13 13 13 14 15 15 15 14 14 14 14 14 14
5 5 5 5 6 6 6 6 7 7 7 7 8 8 9 9 9 9 9 9 9 10 10 9 10 11 12 12 12 12 12 12 12 12 11 11 11 11 11 10 9 9 9 8 8 8 8 7 7 8 8 9 10 11 12 12 13 13 14 14 15 15 14 14 15 15 15 15 14
5 5 5 5 6 6 6 6 7 7 7 8 8 8 9 9 9 9 9 9 9 10 10 10 10 11 11 11 11 11 12 12 11 11 11 11 11 10 10 8 8 8 8 8 9 10 9 7 7 7 7 8 10 11 11 12 13 13 13 14 14 14 14 14 15 15 15 15 14
5 5 6 6 6 7 7 7 7 7 8 8 8 8 8 9 9 9 9 9 10 10 10 10 10 10 10 10 10 10 10 10 10 11 11 11 11 10 10 8 7 7 7 8 9 9 10 10 11 10 9 9 10 10 11 11 12 13 13 14 13 13 13 14 14 14 14 13 13
5 6 6 6 7 7 7 7 7 8 8 8 8 9 9 9 9 9 9 9 10 10 10 9 9 9 8 8 9 9 9 8 9 10 11 11 11 11 10 8 7 7 7 9 10 11 12 13 15 14 13 10 10 10 10 10 12 13 13 13 13 13 13 14 14 14 14 13 13
6 6 6 7 7 7 7 7 7 8 8 8 9 9 9 9 9 10 10 10 10 10 9 8 8 7 7 7 7 8 8 9 9 9 9 10 10 10 10 8 7 7 8 10 12 13 14 16 17 17 15 12 10 10 11 11 11 11 11 11 12 12 13 13 13 13 13 14 13
6 7 7 7 7 8 8 8 8 8 8 9 9 9 9 10 10 10 10 10 10 10 9 8 7 6 6 7 8 9 9 10 9 8 8 8 9 9 9 8 8 8 9 11 13 15 16 17 17 17 17 15 11 9 9 9 10 10 10 10 10 11 11 11 11 12 12 13 14
6 7 7 8 8 8 8 8 8 8 8 8 9 9 10 10 10 10 10 10 10 10 9 8 8 8 8 9 9 9 9 9 8 8 8 8 8 9 9 9 8 9 10 12 14 15 16 17 18 17 17 16 13 11 9 9 10 10 10 10 10 11 12 12 13 13 14 13 14
7 7 7 8 8 8 8 8 8 9 9 8 9 10 10 10 10 10 10 10 10 10 10 10 10 10 10 11 10 10 10 10 9 8 8 9 9 9 10 10 9 9 10 12 14 15 16 17 18 18 18 17 13 11 10 10 11 11 10 10 12 13 13 13 13 14 14 15 15
7 7 8 8 8 8 8 9 9 9 9 10 10 10 10 10 10 11 11 10 10 11 11 11 11 11 11 11 11 11 11 10 9 9 9 9 10 11 11 10 10 10 10 13 14 15 16 17 18 18 17 17 13 12 11 12 12 11 12 13 14 14 14 13 13 14 15 16 15
8 8 8 8 8 9 9 9 9 9 9 10 10 10 10 10 11 11 10 10 10 10 11 11 11 11 11 12 12 11 11 10 9 9 10 11 11 12 12 11 10 10 11 13 14 15 16 16 17 17 17 16 13 12 12 12 11 11 11 12 13 14 15 16 15 15 15 15 15
8 8 8 8 9 9 9 9 9 9 10 10 10 10 10 10 11 11 10 10 9 10 10 10 11 11 11 11 11 11 10 9 9 10 10 11 12 13 13 12 9 9 11 13 14 15 15 16 16 16 16 16 12 11 12 13 12 11 11 12 13 13 14 15 16 16 15 15 13
8 9 9 9 9 9 9 9 9 10 10 10 10 10 10 11 11 11 11 10 10 10 10 10 10 10 10 10 10 10 10 10 10 10 11 11 12 13 14 14 12 12 13 15 15 15 15 15 15 16 16 14 11 10 11 13 12 12 13 13 13 14 14 15 14 14 14 13 13
9 9 9 9 9 9 10 10 10 10 10 10 11 11 11 11 11 11 10 11 11 11 11 11 11 11 11 11 10 9 10 11 12 12 11 11 12 13 14 15 14 15 15 15 15 15 15 15 15 15 15 12 10 9 10 10 10 11 12 13 13 14 14 14 13 12 12 11 12
9 9 9 10 10 10 10 10 10 10 10 10 11 11 11 11 11 10 10 10 10 11 11 11 11 11 11 11 10 10 10 12 12 12 12 11 11 13 14 15 15 15 15 15 15 15 15 15 15 15 13 11 10 9 9 9 9 10 11 12 12 13 13 12 11 12 12 12 12
8 9 9 10 10 10 10 10 10 10 10 10 11 11 11 11 10 10 10 9 10 11 11 11 11 11 11 12 11 11 12 12 12 12 12 12 11 12 14 16 15 14 14 14 15 15 15 15 14 14 13 10 10 10 9 8 9 9 10 10 11 11 11 10 9 10 11 12 12
8 9 9 9 10 10 10 10 10 10 10 10 10 11 11 10 10 9 9 9 10 11 11 12 12 12 12 12 12 12 12 12 12 12 12 12 12 12 14 15 15 14 13 14 15 15 14 14 14 14 13 11 10 9 8 8 9 10 10 10 10 10 11 10 9 9 10 11 13
9 9 9 9 10 10 10 10 10 10 10 10 10 10 10 10 10 9 9 9 10 10 11 11 12 13 12 12 12 12 12 12 12 12 11 11 12 13 14 14 14 14 14 14 14 14 14 14 15 14 13 10 9 8 8 8 9 10 10 10 9 9 9 9 9 9 9 10 12
9 9 9 9 10 10 10 10 10 10 9 9 10 10 9 9 10 9 9 9 10 10 10 10 12 13 13 12 12 12 12 13 13 13 12 12 12 12 13 12 13 14 14 14 14 15 15 15 15 15 14 10 8 7 7 7 8 10 10 10 9 9 9 9 9 9 9 9 10
Wind_Direction
35 38 37 32 17 8 4 5 5 358 350 347 346 346 343 339 333 329 327 326 324 324 323 323 324 325 326 326 325 324 323 321 319 316 314 312 310 310 310 309 307 305 303 301 301 300 299 299 298 296 294 292 292 292 293 295 300 301 300 296 291 287 285 284 284 286 288 289 289
35 36 36 36 22 14 7 3 3 357 350 344 342 339 334 327 321 318 317 316 318 319 318 316 317 318 318 319 320 320 318 315 314 312 311 310 310 309 309 307 306 304 302 302 302 300 299 297 294 291 288 287 288 289 290 291 294 297 297 297 294 290 284 279 277 279 281 283 284
30 30 28 27 21 15 8 2 359 351 344 335 332 327 321 315 312 311 311 314 316 316 314 312 312 313 315 316 316 315 313 311 311 312 312 312 312 312 312 310 309 307 306 306 306 305 304 303 298 292 287 284 282 281 280 282 284 287 290 292 293 293 289 282 277 275 274 274 277
29 29 28 25 19 12 4 356 349 341 332 324 318 312 308 306 308 311 313 314 314 312 310 309 310 312 313 313 311 310 309 311 313 314 314 314 314 313 312 310 310 309 309 309 308 308 307 307 303 298 294 292 287 281 275 273 272 273 276 281 284 288 290 291 287 281 275 270 271
26 28 27 23 16 7 358 348 340 331 323 313 306 303 304 306 309 312 314 315 312 309 307 307 309 309 310 309 310 311 313 316 317 316 315 313 311 310 309 309 309 310 309 308 307 306 306 306 302 298 296 296 293 290 288 286 279 274 271 271 274 279 285 290 291 288 282 275 271
16 21 22 19 9 358 346 341 334 326 317 304 301 303 308 313 316 317 315 313 307 305 304 306 308 309 310 312 315 317 319 319 317 314 311 310 308 308 309 309 309 309 308 307 306 306 305 305 299 294 292 293 292 293 295 298 295 288 281 273 269 269 273 277 282 285 284 279 273
5 10 11 7 357 345 338 339 333 323 314 304 308 313 317 318 318 317 314 309 305 304 307 312 317 319 319 321 321 320 319 316 313 312 310 309 309 309 310 310 309 308 306 307 307 307 306 303 297 292 288 287 286 289 291 294 295 294 291 286 278 270 266 266 271 276 279 280 277
355 359 358 352 344 341 341 341 333 324 317 314 319 321 321 320 318 316 313 309 308 311 316 320 323 323 322 322 319 316 315 313 311 311 311 310 310 310 309 308 306 305 305 304 304 304 303 300 295 290 287 283 282 282 284 286 286 286 286 287 287 286 282 277 274 275 278 282 284
347 346 345 342 343 346 344 339 332 326 322 321 323 323 321 319 317 315 314 314 316 318 320 321 322 321 319 317 315 314 313 313 312 311 311 310 309 309 307 306 304 302 301 299 298 298 297 295 292 291 290 289 289 289 288 287 283 281 281 282 284 287 288 288 286 283 283 285 288
339 339 340 342 344 344 341 334 332 329 327 325 325 323 319 315 314 316 319 322 321 320 318 318 320 319 317 315 314 313 312 311 311 310 310 308 307 306 305 303 301 300 298 296 295 294 292 290 289 289 290 291 290 290 289 288 286 284 282 279 279 280 281 282 283 284 284 285 286
334 339 341 343 341 339 337 334 335 333 330 328 326 322 317 314 319 323 326 325 320 318 317 318 319 318 316 314 313 312 311 310 310 309 308 308 306 305 303 301 300 299 298 296 294 291 288 284 283 283 285 286 287 286 285 283 282 279 277 274 274 275 276 277 278 280 281 281 281
335 339 340 340 340 340 339 338 337 332 328 327 325 323 322 324 328 329 328 324 320 318 318 319 319 317 315 312 312 311 310 310 309 308 308 307 306 304 303 300 299 298 297 296 293 289 284 281 281 281 283 285 285 285 284 283 280 277 275 274 272 272 273 275 276 277 278 279 280
334 335 337 341 343 343 341 337 334 329 326 328 329 330 330 331 331 329 326 323 322 320 319 318 317 314 312 311 311 311 310 310 309 308 307 306 305 304 302 300 299 298 297 296 293 291 288 285 284 284 285 287 288 289 289 289 287 284 282 281 279 277 275 274 274 275 276 277 278
335 336 339 344 344 342 339 335 334 331 330 332 334 335 334 331 329 327 325 324 323 320 317 315 313 312 311 311 310 310 310 309 308 307 306 305 304 303 302 301 300 298 297 296 294 292 292 290 289 288 288 288 288 289 290 291 291 289 288 287 285 282 279 276 274 273 273 274 275
339 343 346 347 344 341 339 338 337 335 333 333 335 335 332 329 327 325 324 323 321 317 314 313 311 310 309 310 309 309 308 308 307 306 305 304 303 302 302 300 300 299 297 296 294 293 293 293 292 291 289 287 286 286 286 287 288 287 287 286 284 282 279 276 273 271 270 271 273
349 351 351 348 344 342 341 341 339 336 333 332 332 332 329 327 325 324 322 320 318 315 312 311 310 309 308 308 308 308 308 307 306 305 304 303 303 302 301 301 300 299 298 297 295 294 294 293 293 291 289 286 284 283 283 283 284 284 284 283 281 278 276 273 272 270 270 269 270
357 355 352 347 344 343 342 341 338 334 331 329 328 327 325 324 322 321 319 317 314 312 310 310 309 308 307 307 307 308 306 305 304 303 302 302 302 302 301 301 300 300 299 298 296 295 293 292 291 290 288 287 285 283 282 282 282 283 284 283 281 279 277 275 274 274 274 273 272
358 353 350 347 345 342 341 339 335 331 328 326 324 323 322 320 318 316 314 313 312 310 310 309 309 308 307 307 306 305 304 303 302 301 301 301 301 301 301 300 300 299 299 298 296 294 293 292 291 291 290 289 287 286 284 283 282 282 283 283 282 281 279 277 275 274 274 276 276
355 350 347 346 343 341 338 335 332 328 325 323 321 320 318 316 314 313 311 311 310 310 309 309 309 308 306 305 304 303 301 300 300 300 300 300 300 300 300 299 299 298 298 297 296 295 294 294 294 294 293 292 291 289 286 284 282 282 282 282 283 283 283 280 277 274 272 272 275
350 347 347 345 341 337 334 330 328 325 323 320 319 317 315 313 313 312 311 311 310 310 309 309 308 306 305 304 302 302 301 299 300 300 300 300 300 299 299 299 298 298 297 298 297 297 296 295 295 294 293 292 291 290 288 287 286 287 288 289 291 294 295 295 294 291 287 284 283
347 346 345 342 337 333 329 326 324 322 319 318 316 314 314 313 313 312 311 311 311 310 309 308 305 304 303 303 302 301 300 299 299 298 298 298 298 297 297 298 298 297 297 297 296 296 295 294 293 293 292 291 292 293 295 298 300 301 302 302 302 303 303 303 302 300 298 295 292
344 345 343 337 332 328 325 323 321 319 317 315 315 314 314 314 313 312 312 312 311 309 308 305 303 302 301 302 301 300 299 297 295 295 294 295 295 295 296 296 296 295 294 293 292 291 291 292 292 293 294 295 298 302 305 308 308 307 306 303 301 300 299 298 297 296 294 292 290
342 342 338 331 328 325 323 321 319 318 316 316 316 316 315 314 313 313 313 313 310 307 305 302 301 300 300 299 299 298 297 295 293 292 291 291 291 292 293 293 292 291 290 289 287 287 288 292 295 298 301 303 306 307 308 307 305 303 301 299 298 296 295 294 293 292 290 289 288
338 337 333 328 326 325 323 320 319 318 318 319 318 318 316 315 315 314 313 310 307 304 302 301 300 299 298 297 296 295 294 293 292 290 289 288 288 289 289 290 288 287 286 286 286 287 289 292 298 301 303 304 305 304 303 301 299 297 296 295 294 292 291 290 288 287 286 285 284
336 333 331 328 327 324 322 321 321 321 321 321 319 318 316 315 315 313 310 307 305 303 301 299 298 296 295 293 291 289 288 287 287 287 287 286 286 287 287 286 284 284 284 286 287 289 291 293 298 300 301 301 300 298 297 295 294 293 292 291 290 289 288 287 285 283 281 280 279
334 333 331 329 326 324 323 324 323 323 322 320 319 318 316 315 313 310 308 306 304 303 301 299 296 292 289 286 284 282 281 281 282 284 286 288 288 288 287 285 284 285 287 291 294 296 298 299 300 299 298 298 297 296 295 293 292 291 290 289 288 288 287 286 285 283 281 279 277
336 334 332 329 327 326 326 326 326 324 322 320 319 317 315 314 312 310 308 306 305 303 301 297 293 289 284 281 280 280 280 282 285 287 288 290 290 290 290 289 289 291 295 300 302 303 303 303 301 300 298 296 296 296 295 293 292 291 290 289 287 286 286 286 286 286 284 282 280
338 335 332 329 328 328 328 328 326 323 321 320 318 316 315 313 311 309 308 307 306 304 302 297 293 290 287 287 287 287 287 288 288 288 287 287 289 291 294 296 297 299 301 305 306 305 304 303 302 300 299 297 295 294 292 291 291 290 288 286 285 284 284 284 285 286 286 285 284
339 335 332 330 330 329 329 327 325 323 321 319 317 316 315 314 313 311 310 308 308 306 304 300 297 295 295 295 294 293 292 290 288 287 287 288 292 295 299 301 301 302 303 305 305 304 303 302 301 300 299 298 295 293 291 289 288 287 285 283 282 281 281 281 282 283 284 285 285
338 335 332 331 330 329 328 326 323 322 320 318 318 316 316 314 313 312 310 309 308 306 303 300 299 298 297 297 297 296 295 294 293 293 295 297 298 300 301 301 301 301 301 303 302 301 301 300 300 299 298 298 294 290 288 286 285 284 283 282 281 280 280 280 280 280 280 281 281
337 335 333 330 329 327 326 324 323 322 320 318 317 317 316 315 314 312 311 310 307 304 302 300 300 299 300 300 299 299 299 300 301 302 303 304 302 301 301 300 299 299 299 300 299 299 299 298 298 298 297 296 293 290 288 286 284 283 282 281 281 281 281 280 278 278 277 278 278
338 336 333 330 328 326 325 324 323 322 320 319 318 317 316 314 313 312 311 310 306 305 305 305 305 305 304 304 303 302 303 303 305 305 305 305 303 303 302 301 300 299 297 298 296 295 295 295 295 296 296 295 293 290 289 287 285 283 281 280 280 280 280 279 277 276 275 275 276
338 336 332 329 327 326 325 324 323 321 320 319 318 317 316 315 314 312 310 308 307 307 309 310 309 308 307 306 305 304 304 304 305 305 305 305 305 305 304 302 301 298 296 293 291 290 290 291 293 294 295 296 294 292 291 289 286 283 281 279 279 279 279 278 277 275 274 273 274
337 334 330 328 326 325 324 324 323 322 320 320 319 318 317 315 314 313 311 310 310 310 310 309 308 306 305 304 304 304 305 305 306 306 307 308 307 306 306 305 301 297 294 290 288 287 287 290 292 295 296 297 295 293 291 290 287 284 282 281 281 280 280 279 277 275 274 273 274
335 332 329 328 326 325 324 323 322 322 321 320 319 318 317 316 315 314 313 312 312 311 309 308 306 305 304 303 303 305 306 307 308 309 309 309 308 306 305 303 301 299 297 295 292 290 290 291 293 295 297 297 294 292 290 289 287 286 285 284 284 283 282 280 279 278 277 277 278
333 331 329 327 325 324 323 322 322 321 321 320 319 318 317 317 315 314 313 313 312 311 310 309 308 306 306 306 306 308 309 310 310 309 308 307 306 304 303 302 302 302 302 300 298 296 294 293 294 295 296 296 294 292 290 288 287 287 287 286 286 285 284 284 284 284 285 285 284
333 330 327 325 323 322 321 321 321 321 320 319 318 318 317 317 316 315 315 315 314 312 311 309 309 309 309 309 309 309 310 310 309 308 306 304 303 302 302 303 303 303 303 302 299 297 295 294 294 294 295 295 294 293 291 289 288 288 289 289 288 288 289 289 289 290 290 289 286
331 328 326 323 321 320 320 320 320 319 318 317 317 317 318 318 316 316 316 315 313 311 310 309 310 310 310 311 309 309 308 308 306 305 304 303 302 302 302 303 304 303 301 300 298 297 296 295 295 295 295 294 295 294 293 292 291 291 292 292 291 292 292 292 292 291 290 289 288
328 325 323 321 319 319 318 318 318 317 316 316 317 318 318 318 316 315 314 311 310 309 309 310 311 311 311 311 310 308 307 306 305 304 303 303 302 302 302 302 303 302 301 299 298 298 299 300 299 298 297 294 295 295 294 293 293 294 294 294 294 293 293 293 293 292 291 291 292
325 322 321 318 317 316 316 315 315 315 316 318 319 319 318 316 314 312 310 308 308 309 310 310 311 311 311 311 309 308 307 307 307 306 304 303 302 302 302 302 303 303 303 303 305 306 307 307 306 305 303 298 298 296 295 295 295 296 296 296 296 295 295 295 294 294 294 294 295
322 320 318 316 314 314 313 314 315 317 319 320 319 317 315 313 311 310 310 311 313 313 313 311 311 311 311 311 310 309 308 308 309 308 306 305 304 304 304 305 306 308 309 310 312 313 314 315 314 314 313 309 305 302 298 297 296 297 297 298 299 299 299 299 298 297 295 295 295